Regional Weather Roundup
Issued by NWS

Home | Current Version | Previous Version | Graphics & Text | Print | Product List | Glossary Off
Versions: 1 2 3 4 5 6 7 8 9 10 11 12 13 14 15 16 17 18 19 20 21 22 23 24 25 26 27 28 29 30 31 32 33 34 35 36 37 38 39 40 41 42 43 44 45 46 47 48 49

000
ASUS45 KBOU 280307
RWRCO

WEATHER ROUNDUP FOR COLORADO
NATIONAL WEATHER SERVICE DENVER/BOULDER CO
800 PM MST TUE JAN 27 2015

NOTE: "FAIR" INDICATES FEW OR NO CLOUDS BELOW 12000 FEET WITH NO
SIGNIFICANT WEATHER AND/OR OBSTRUCTIONS TO VISIBILITY.

COZ001>005-013-030-031-280400-
...NORTHWEST COLORADO...

CITY           SKY/WX    TMP DP  RH WIND       PRES   REMARKS
CRAIG          CLOUDY    35  30  82 CALM      30.24R
HAYDEN         CLOUDY    36  25  64 W6        30.22S
MEEKER         CLOUDY    45  30  55 N3        30.23S
MOUNT WERNER   NOT AVBL
STEAMBOAT SPGS CLOUDY    35  26  71 W5        30.22S WCI  31
WALDEN         CLOUDY    36  23  60 S6        30.21S
$$

COZ006>008-011-280400-
...WEST CENTRAL VALLEYS...

CITY           SKY/WX    TMP DP  RH WIND       PRES   REMARKS
GRAND JUNCTION PTCLDY    33  28  81 CALM      30.25R
MONTROSE       CLEAR     36  24  62 SE8       30.28R
EAGLE          PTCLDY    36  28  75 VRB5      30.25S
RIFLE          MOCLDY    40  27  59 S5        30.25R
DELTA          PTCLDY    41  28  60 CALM      30.26R
NUCLA          MOCLDY    41  32  70 E9        30.31S
$$

COZ017>023-064>068-280400-
...SOUTHWEST COLORADO...

CITY           SKY/WX    TMP DP  RH WIND       PRES   REMARKS
DURANGO        CLEAR     34  27  75 N6        30.30R WCI  29
CORTEZ         MOCLDY    37  30  75 NE8       30.28S
PAGOSA SPRINGS CLOUDY    37  29  72 CALM      30.33R
TELLURIDE      NOT AVBL
WOLF CREEK PAS NOT AVBL
$$

COZ009-010-012-014-032>034-037-058>063-280400-
...CENTRAL COLORADO...

CITY           SKY/WX    TMP DP  RH WIND       PRES   REMARKS
ASPEN          PTCLDY    33  24  69 S7        30.26S WCI  27
BUENA VISTA    PTCLDY    32  23  70 W8        30.23S WCI  25
COPPER MTN     PTCLDY    34  14  44 W10G20    30.36F WCI  26
BERTHOUD PASS  FAIR      28  23  80 W7        30.38F WCI  21
COTTONWOOD PAS PTCLDY    43  10  26 CALM      30.29S
GUNNISON       PTCLDY    16   7  67 CALM      30.35R
KREMMLING      CLOUDY    23  18  80 CALM      30.27S
LEADVILLE      MOCLDY    30  13  49 CALM      30.27F
MONARCH PASS   CLEAR     27  16  63 MISG      30.46F
SALIDA         CLEAR     46  18  32 SW17G23   30.29S
SUNLIGHT       CLOUDY    32  27  80 CALM      30.36S
WILKERSON PASS CLEAR     32  14  47 SW7       30.34F WCI  26
$$

COZ069>075-280400-
...SAN LUIS VALLEY/SANGRE DE CRISTO MOUNTAINS...

CITY           SKY/WX    TMP DP  RH WIND       PRES   REMARKS
ALAMOSA        PTCLDY    29  21  72 N5        30.26S WCI  24
LA VETA PASS   NOT AVBL
SAGUACHE       CLEAR     28  23  80 N5        30.28S WCI  23
$$

COZ035-036-038>040-280400-
...NORTHERN COLORADO FRONT RANGE...

CITY           SKY/WX    TMP DP  RH WIND       PRES   REMARKS
DENVER INTL AP PTCLDY    52  30  43 NW6       30.01F
DMNS CITY PARK   N/A     52  24  33 W2        30.01S
AURORA         PTCLDY    49  31  49 SW6       30.03S
FRONT RANGE AP NOT AVBL
ERIE MUNI ARPT PTCLDY    39  27  62 CALM      30.01S
BOULDER MUN AP PTCLDY    57  19  23 CALM      30.00F
CENTENNIAL     PTCLDY    48  30  49 W8        30.04R
BROOMFIELD     PTCLDY    57  16  19 NW14      30.03S
FORT COLLINS   PTCLDY    46  25  42 N7        30.02F
LONGMONT       PTCLDY    50  20  31 CALM      30.02S
$$

COZ041-046-047-076>085-087-088-280400-
...PIKES PEAK/PALMER DIVIDE AND SOUTHERN FOOTHILLS...

CITY           SKY/WX    TMP DP  RH WIND       PRES   REMARKS
COLO. SPRINGS  CLEAR     43  23  45 NE9       30.06F
A. F. ACADEMY  CLEAR     48  16  27 W12       30.07F
ELLICOTT       CLEAR    N/A N/A N/A S13       30.05F
FALCON         CLEAR     39  22  50 NW5       30.10S
FORT CARSON    CLEAR     47  25  41 SW5       30.03F
LIMON          CLEAR     30  21  69 N9        30.02S WCI  22
MONUMENT HILL  PTCLDY    41  23  48 SW9       30.09S
TRINIDAD       CLEAR     49  29  46 W12       30.09R
$$

COZ042>045-048>051-090-091-280400-
...NORTHEAST COLORADO...

CITY           SKY/WX    TMP DP  RH WIND       PRES   REMARKS
GREELEY ARPT   PTCLDY    39  25  56 N7        29.98F
AKRON          PTCLDY    47  27  45 S6        29.96F
BURLINGTON     PTCLDY    44  30  57 SW10      29.97F
WRAY           CLOUDY    58  28  31 S8        29.93F
STERLING       PTCLDY    43  34  70 N7        29.94F
HOLYOKE        CLOUDY    43  30  61 N3        29.94F
FORT MORGAN    PTCLDY    47  28  48 N14       29.97R
$$

COZ086-089-092>099-280400-
...SOUTHEAST COLORADO...

CITY           SKY/WX    TMP DP  RH WIND       PRES   REMARKS
PUEBLO         CLEAR     44  26  49 SW5       30.00S
LA JUNTA       CLEAR     50  32  50 SW12      29.98F
LAMAR          CLEAR     45  33  63 S14       29.95F
SPRINGFIELD      N/A     45  33  63 SW10      30.02F
$$


USA.gov is the U.S. government's official web portal to all federal, state and local government web resources and services.